Date String (YYYY-MM-DD hh:mm:ss) UTC,Instrument flags,absolute air pressure of the measurement (hPa),sample flow rate (lpm),inlet stack bypass flow (lpm),air temperature of the measurement (°C),ambient temperature measured by the external sensor (°C),aerosol sample conditioner tube jacket temperature (°C),OPC LED temperature (°C),internal box temperature (°C),relative humidity of the measurement (%),span deviation,mass concentration of particles derived from Lorenz-Mie calculation of OPC scattering (μg/m³),mass concentration of particles derived from Lorenz-Mie calculation of OPC scattering (μg/m³),mass concentration of particles derived from Lorenz-Mie calculation of OPC scattering (μg/m³)
DateTimeUTC,F1_M11,P_M11,Q1_M11,Q2_M11,T1_M11,T2_M11,T3_M11,T4_M11,T5_M11,U1_M11,ZSPAN_M11,X0_M11,X2_M11,X1_M11
2023-12-18 08:00:00,SystemResetWarning,0835.3,4.99,000.00,021.8,020.7,000.0,030.4,023.1,10.1,0000.0,0002.52,0001.27,0001.01
2023-12-18 08:01:00,SystemResetWarning,0835.3,5.00,000.00,021.8,020.7,000.0,030.3,023.0,10.1,0000.0,0001.89,0001.25,0001.00
2023-12-18 08:02:00,SystemResetWarning,0835.3,5.00,000.00,021.8,020.6,000.0,030.3,023.0,10.1,0000.0,0001.66,0001.18,0000.99
2023-12-18 08:03:00,SystemResetWarning,0835.3,5.00,000.00,021.8,020.6,000.0,030.3,023.0,10.1,0000.0,0001.58,0001.15,0000.97
2023-12-18 08:04:00,SystemResetWarning,0835.3,5.00,000.00,021.7,020.6,000.0,030.3,023.0,10.1,0000.0,0001.58,0001.15,0000.97
2023-12-18 08:05:00,SystemResetWarning,0835.3,5.00,000.00,021.7,020.6,000.0,030.3,023.0,10.3,0000.0,0001.57,0001.13,0000.96
2023-12-18 08:06:00,SystemResetWarning,0835.3,5.01,000.00,021.7,020.6,000.0,030.3,022.9,10.4,0000.0,0001.56,0001.12,0000.95
2023-12-18 08:07:00,SystemResetWarning,0835.3,5.00,000.00,021.7,020.6,000.0,030.2,023.0,10.5,0000.0,0001.71,0001.13,0000.94
2023-12-18 08:08:00,SystemResetWarning,0835.3,5.01,000.00,021.7,020.6,000.0,030.2,023.0,10.3,0000.0,0001.78,0001.15,0000.94
2023-12-18 08:09:00,SystemResetWarning,0835.2,5.00,000.00,021.7,020.6,000.0,030.2,022.9,10.3,0000.0,0002.34,0001.19,0000.94
2023-12-18 08:10:00,SystemResetWarning,0835.2,4.99,000.00,021.7,020.6,000.0,030.2,022.9,10.3,0000.0,0002.50,0001.23,0000.95
2023-12-18 08:11:00,SystemResetWarning,0835.2,4.99,000.00,021.7,020.5,000.0,030.2,022.9,10.3,0000.0,0002.61,0001.24,0000.96
2023-12-18 08:12:00,SystemResetWarning,0835.3,4.99,000.00,021.6,020.5,000.0,030.2,022.8,10.3,0000.0,0002.61,0001.25,0000.96
2023-12-18 08:13:00,SystemResetWarning,0835.3,5.01,000.00,021.6,020.5,000.0,030.2,022.8,10.2,0000.0,0002.68,0001.27,0000.95
2023-12-18 08:14:00,SystemResetWarning,0835.3,5.01,000.00,021.6,020.5,000.0,030.1,022.8,10.3,0000.0,0002.79,0001.29,0000.96
2023-12-18 08:15:00,SystemResetWarning,0835.3,5.00,000.00,021.6,020.4,000.0,030.1,022.8,10.3,0000.0,0002.84,0001.30,0000.95
2023-12-18 08:16:00,SystemResetWarning,0835.3,4.99,000.00,021.6,020.4,000.0,030.1,022.8,10.4,0000.0,0002.84,0001.30,0000.95
2023-12-18 08:17:00,SystemResetWarning,0835.3,5.00,000.00,021.6,020.4,000.0,030.1,022.8,10.3,0000.0,0002.82,0001.28,0000.94
2023-12-18 08:18:00,SystemResetWarning,0835.2,4.99,000.00,021.5,020.4,000.0,030.1,022.8,10.3,0000.0,0002.77,0001.28,0000.94
2023-12-18 08:19:00,SystemResetWarning,0835.1,5.00,000.00,021.5,020.4,000.0,030.0,022.7,10.3,0000.0,0002.86,0001.29,0000.94
2023-12-18 08:20:00,SystemResetWarning,0835.1,5.01,000.00,021.5,020.4,000.0,030.0,022.8,10.3,0000.0,0002.53,0001.30,0000.94
2023-12-18 08:21:00,SystemResetWarning,0835.1,5.00,000.00,021.5,020.3,000.0,030.0,022.8,10.3,0000.0,0002.38,0001.28,0000.93
2023-12-18 08:22:00,SystemResetWarning,0835.1,5.01,000.00,021.5,020.3,000.0,030.0,022.7,10.3,0000.0,0002.32,0001.26,0000.92
2023-12-18 08:23:00,SystemResetWarning,0835.0,5.00,000.00,021.4,020.3,000.0,030.0,022.7,10.3,0000.0,0002.49,0001.29,0000.92
2023-12-18 08:24:00,SystemResetWarning,0835.0,4.99,000.00,021.4,020.3,000.0,030.0,022.7,10.3,0000.0,0002.55,0001.30,0000.93
2023-12-18 08:25:00,SystemResetWarning,0835.1,4.99,000.00,021.4,020.3,000.0,030.0,022.7,10.3,0000.0,0002.53,0001.31,0000.94
2023-12-18 08:26:00,SystemResetWarning,0835.1,5.00,000.00,021.4,020.3,000.0,029.9,022.7,10.3,0000.0,0002.39,0001.27,0000.94
2023-12-18 08:27:00,SystemResetWarning,0835.1,5.01,000.00,021.4,020.3,000.0,029.9,022.7,10.3,0000.0,0002.35,0001.27,0000.93
2023-12-18 08:28:00,SystemResetWarning,0835.1,5.01,000.00,021.4,020.3,000.0,029.9,022.7,10.3,0000.0,0002.48,0001.31,0000.94
2023-12-18 08:29:00,SystemResetWarning,0835.1,5.01,000.00,021.4,020.3,000.0,029.9,022.7,10.3,0000.0,0002.49,0001.33,0000.94
2023-12-18 08:30:00,SystemResetWarning,0835.1,5.00,000.00,021.4,020.3,000.0,029.9,022.6,10.3,0000.0,0002.38,0001.31,0000.95
2023-12-18 08:31:00,SystemResetWarning,0835.1,4.99,000.00,021.4,020.2,000.0,029.9,022.6,10.3,0000.0,0002.28,0001.29,0000.95
2023-12-18 08:32:00,SystemResetWarning,0835.0,5.00,000.00,021.3,020.2,000.0,029.9,022.6,10.3,0000.0,0002.58,0001.30,0000.96
2023-12-18 08:33:00,SystemResetWarning,0835.0,5.01,000.00,021.3,020.2,000.0,029.9,022.5,10.4,0000.0,0002.70,0001.31,0000.96
2023-12-18 08:34:00,SystemResetWarning,0835.0,5.01,000.00,021.3,020.2,000.0,029.8,022.5,10.4,0000.0,0003.45,0001.31,0000.96
2023-12-18 08:35:00,SystemResetWarning,0835.0,5.00,000.00,021.3,020.2,000.0,029.8,022.5,10.4,0000.0,0004.56,0001.32,0000.95
2023-12-18 08:36:00,SystemResetWarning,0835.0,4.99,000.00,021.3,020.2,000.0,029.8,022.6,10.3,0000.0,0004.59,0001.31,0000.95
2023-12-18 08:37:00,SystemResetWarning,0835.0,5.00,000.00,021.3,020.2,000.0,029.8,022.6,10.4,0000.0,0004.69,0001.32,0000.95
2023-12-18 08:38:00,SystemResetWarning,0835.0,5.00,000.00,021.3,020.2,000.0,029.8,022.5,10.4,0000.0,0004.72,0001.30,0000.94
2023-12-18 08:39:00,SystemResetWarning,0835.0,5.01,000.00,021.3,020.2,000.0,029.8,022.5,10.4,0000.0,0004.63,0001.28,0000.95
2023-12-18 08:40:00,SystemResetWarning,0835.0,5.01,000.00,021.2,020.1,000.0,029.8,022.5,10.4,0000.0,0004.76,0001.28,0000.95
2023-12-18 08:41:00,SystemResetWarning,0835.0,5.01,000.00,021.2,020.1,000.0,029.7,022.5,10.4,0000.0,0005.37,0001.26,0000.94
2023-12-18 08:42:00,SystemResetWarning,0835.0,5.00,000.00,021.2,020.1,000.0,029.7,022.5,10.3,0000.0,0005.54,0001.26,0000.93
2023-12-18 08:43:00,SystemResetWarning,0835.0,4.98,000.00,021.2,020.1,000.0,029.7,022.5,10.3,0000.0,0005.33,0001.25,0000.93
2023-12-18 08:44:00,SystemResetWarning,0835.0,4.99,000.00,021.2,020.1,000.0,029.7,022.5,10.4,0000.0,0005.72,0001.23,0000.93
2023-12-18 08:45:00,SystemResetWarning,0834.9,5.00,000.00,021.2,020.1,000.0,029.7,022.4,10.4,0000.0,0005.94,0001.22,0000.94
2023-12-18 08:46:00,SystemResetWarning,0834.9,5.00,000.00,021.2,020.1,000.0,029.7,022.4,10.4,0000.0,0004.24,0001.21,0000.94
2023-12-18 08:47:00,SystemResetWarning,0834.9,5.00,000.00,021.2,020.1,000.0,029.7,022.4,10.4,0000.0,0004.33,0001.24,0000.94
2023-12-18 08:48:00,SystemResetWarning,0834.8,5.01,000.00,021.2,020.1,000.0,029.7,022.4,10.4,0000.0,0004.33,0001.24,0000.95
2023-12-18 08:49:00,SystemResetWarning,0835.4,5.00,000.00,021.2,020.1,000.0,029.6,022.4,10.4,0000.0,0004.30,0001.27,0000.96
2023-12-18 08:50:00,SystemResetWarning,0835.3,5.00,000.00,021.1,020.0,000.0,029.6,022.4,10.4,0000.0,0004.28,0001.26,0000.96
2023-12-18 08:51:00,SystemResetWarning,0835.3,5.00,000.00,021.1,020.0,000.0,029.6,022.4,10.4,0000.0,0004.31,0001.26,0000.96
2023-12-18 08:52:00,SystemResetWarning,0835.2,4.99,000.00,021.1,020.0,000.0,029.6,022.4,10.4,0000.0,0003.79,0001.28,0000.98
2023-12-18 08:53:00,SystemResetWarning,0835.1,5.00,000.00,021.1,020.0,000.0,029.6,022.4,10.4,0000.0,0003.76,0001.28,0000.98
2023-12-18 08:54:00,SystemResetWarning,0835.2,5.00,000.00,021.1,020.0,000.0,029.6,022.4,10.4,0000.0,0004.82,0001.36,0000.97
2023-12-18 08:55:00,SystemResetWarning,0835.4,5.00,000.00,021.1,020.0,000.0,029.6,022.4,10.4,0000.0,0004.43,0001.40,0000.98
2023-12-18 08:56:00,SystemResetWarning,0835.2,5.01,000.00,021.1,020.0,000.0,029.6,022.3,10.5,0000.0,0003.76,0001.38,0000.98
2023-12-18 08:57:00,SystemResetWarning,0834.8,5.00,000.00,021.1,020.0,000.0,029.5,022.3,10.5,0000.0,0003.64,0001.35,0000.97
2023-12-18 08:58:00,SystemResetWarning,0834.8,4.98,000.00,021.1,020.0,000.0,029.5,022.3,10.5,0000.0,0003.48,0001.34,0000.99
2023-12-18 08:59:00,SystemResetWarning,0834.7,4.99,000.00,021.0,020.0,000.0,029.5,022.3,10.5,0000.0,0003.44,0001.34,0001.00
